Regional Weather Roundup
Issued by NWS New Orleans/Baton Rouge, LA

Home | Current Version | Previous Version | Text Only | Print | Product List | Glossary On
Versions: 1 2 3 4 5 6 7 8 9 10 11 12 13 14 15 16 17 18 19 20 21 22 23 24 25 26 27 28
000
ASUS44 KLIX 261011
RWRLIX
NEW ORLEANS REGIONAL WEATHER ROUNDUP
NATIONAL WEATHER SERVICE NEW ORLEANS LA
500 AM CDT TUE JUL 26 2016

NOTE: "FAIR" INDICATES FEW OR NO CLOUDS BELOW 12,000 FEET WITH NO
      SIGNIFICANT WEATHER AND/OR OBSTRUCTIONS TO VISIBILITY.
      SKY/WX - SKY CONDITION AND SIGNIFICANT WEATHER.
      TMP - AIR TEMPERATURE.     DP    - DEWPOINT TEMPERATURE.
      RH  - RELATIVE HUMIDITY.   PRES  - PRESSURE.
      HI  - HEAT INDEX.          WCI   - WIND CHILL INDEX.

*  THESE STATIONS ARE NOT NWS OR FAA STATIONS AND ARE NOT UNDER
   NWS QUALITY CONTROL.

LAZ038-040-048-061>063-065>067-069-261100-
SOUTHEAST LOUISIANA

CITY           SKY/WX    TMP DP  RH WIND       PRES   REMARKS
N.O. AUDUBON     N/A     79  78  98 MISG        N/A
N.O. INTL ARPT PTCLDY    80  76  87 CALM      29.90S
N.O. LAKEFRONT CLEAR     82  77  84 CALM      29.91R
N.O. DOWNTOWN*   N/A     81  77  88 CALM      29.91S
RESERVE*       PTSUNNY   78  76  94 CALM      29.92R
SLIDELL        LGT RAIN  76  75  97 CALM      29.91R
BATON ROUGE    PTCLDY    75  72  90 CALM      29.93R
BOOTHVILLE     PTCLDY    80  77  90 SE3       29.90S
BELLE CHASSE   CLEAR     76  75  97 NW3       29.90S
BOGALUSA*        N/A     75  72  89 CALM      29.95R
GALLIANO*      MOSUNNY   68  68 100 CALM      29.90S FOG
NEW ROADS*       N/A     74  73  98 CALM      29.94R
GONZALES*      FOG       75  75 100 CALM      29.91S VSB 1/2
HAMMOND*       CLEAR     73  70  88 CALM      29.93R
HOUMA*         PTCLDY    75  75  99 CALM      29.91S FOG
PORT FOURCHON* PTSUNNY   81  73  78 CALM      29.91R

$$

MSZ070-080>082-261100-
SOUTHERN MISSISSIPPI

CITY           SKY/WX    TMP DP  RH WIND       PRES   REMARKS
MCCOMB         CLEAR     74  72  93 CALM      29.95R
GULFPORT       LGT RAIN  78  76  93 CALM      29.91R FOG
BILOXI         PTCLDY    78  77  97 E7        29.92R
PASCAGOULA     CLOUDY    77  77 100 NE3       29.93R

$$

COASTAL OBSERVATIONS
LAKE AND NEARSHORE STATIONS

STATION/POSITION TIME  TEMP    WIND        PRES    WAVE
                       AIR SEA DIR/SP/G            HT/PER
                 (UTC) (F)     (DEG/KT/KT) (MB)    (FT/S)
PASCAGOULA       0900   83     130/  9/ 12 1012.3
WAVELAND YACHT   0900   79 86   70/  5/  6 1012.8
GRAND ISLE       0900   82 88   CALM  /  2 1012.3
SOUTHWEST PASS   0900          180/ 12/ 15   N/A
NEW CANAL        0900   80 88   CALM  /  2 1011.7
SHELL BEACH      0900   81 88  160/  2/  4 1012.4

OFFSHORE STATIONS

STATION/POSITION TIME  TEMP    WIND        PRES    WAVE
                       AIR SEA DIR/SP/G            HT/PER
                 (UTC) (F)     (DEG/KT/KT) (MB)    (FT/S)
64 S DAUPHIN ISL 0900   84 87  170/ 10/ 14 1012.5

$$





USA.gov is the U.S. government's official web portal to all federal, state and local government web resources and services.